Location: Unspecified
(0.0000°N, 0.0000°E)
Time: 18:57:48
(UTC+00:00)

THORAD DELTA 1 DEB - Pass Details

Date: 21 February 2026
Orbit: 1451 x 1738 km, 101.5° (Epoch: 9 March)

Event Time Altitude Azimuth Distance (km) Brightness Sun altitude
Rises 20:11:28 0° 160° (SSE) 4,689 ? -29.0°
Reaches altitude 10° 20:14:22 10° 158° (SSE) 3,673 ? -29.7°
Maximum altitude 20:22:52 72° 74° (ENE) 1,530 ? -31.7°
Drops below altitude 10° 20:31:04 10° 351° (N) 3,561 ? -33.7°
Sets 20:33:50 0° 349° (N) 4,538 ? -34.4°
